Location: Gad�tanya
(48.0500°N, 20.8500°E)
Time: 22:58:10
(UTC+00:00)

Thor Agena Rocket - Pass Details

Date: 05 July 2020
Orbit: 759 x 808 km, 99.0° (Epoch: 05 August)

Event Time Altitude Azimuth Distance (km) Brightness Sun altitude
Rises 20:43:15 0° 22° (NNE) 3,267 7.4 -14.5°
Reaches altitude 10° 20:45:47 10° 31° (NNE) 2,327 6.4 -14.7°
Maximum altitude 20:50:26 34° 97° (E) 1,242 4.3 -15.0°
Enters shadow 20:52:42 23° 142° (SE) 1,565 4.5 -15.2°
